When you browse on this site, cookies collect data to enhance your experience and personalize the content and advertising you see.
Visit our Privacy Policy to learn more. By continuing to use the site, you agree to this use of cookies and data.
EN

Hourly Weather Amvrosievka

Today, 11 July, Saturday

Time Temperature Precipitation Wind Pressure Humidity
00:00 +19°C° 0 mm 3 mps 750 mmHg 63%
01:00 +18°C° 0 mm 3 mps 750 mmHg 65%
02:00 +18°C° 0 mm 3 mps 750 mmHg 66%
03:00 +18°C° 0 mm 3 mps 750 mmHg 68%
04:00 +18°C° 0 mm 3 mps 750 mmHg 69%
05:00 +18°C° 0 mm 3 mps 750 mmHg 70%
06:00 +18°C° 0 mm 3 mps 751 mmHg 70%
07:00 +20°C° 0 mm 4 mps 751 mmHg 65%
08:00 +22°C° 0 mm 4 mps 751 mmHg 59%
09:00 +25°C° 0 mm 4 mps 751 mmHg 54%
10:00 +26°C° 0 mm 4 mps 751 mmHg 49%
11:00 +27°C° 0 mm 4 mps 751 mmHg 44%
12:00 +28°C° 0 mm 4 mps 750 mmHg 39%
13:00 +29°C° 0 mm 4 mps 750 mmHg 38%
14:00 +29°C° 0 mm 5 mps 750 mmHg 36%
15:00 +30°C° 0 mm 5 mps 749 mmHg 35%
16:00 +30°C° 0 mm 5 mps 749 mmHg 37%
17:00 +29°C° 0 mm 5 mps 749 mmHg 39%
18:00 +29°C° 0 mm 5 mps 748 mmHg 40%
19:00 +27°C° 0 mm 4 mps 748 mmHg 46%
20:00 +25°C° 0 mm 4 mps 748 mmHg 52%
21:00 +22°C° 0 mm 4 mps 748 mmHg 57%
22:00 +22°C° 0 mm 4 mps 748 mmHg 60%
23:00 +21°C° 0 mm 4 mps 748 mmHg 63%

Tomorrow, 12 July, Sunday

Time Temperature Precipitation Wind Pressure Humidity
00:00 +20°C° 0 mm 4 mps 747 mmHg 66%
01:00 +20°C° 0 mm 4 mps 747 mmHg 67%
02:00 +20°C° 0 mm 4 mps 747 mmHg 69%
03:00 +19°C° 0 mm 4 mps 747 mmHg 70%
04:00 +20°C° 0 mm 4 mps 746 mmHg 72%
05:00 +20°C° 0 mm 4 mps 746 mmHg 74%
06:00 +20°C° 0 mm 4 mps 746 mmHg 76%
07:00 +22°C° 0 mm 4 mps 746 mmHg 72%
08:00 +25°C° 0 mm 4 mps 746 mmHg 67%
09:00 +27°C° 0 mm 4 mps 745 mmHg 63%
10:00 +29°C° 0 mm 4 mps 745 mmHg 57%
11:00 +32°C° 0 mm 4 mps 745 mmHg 51%
12:00 +34°C° 0 mm 4 mps 745 mmHg 44%
13:00 +34°C° 0 mm 4 mps 744 mmHg 43%
14:00 +34°C° 0 mm 4 mps 744 mmHg 42%
15:00 +34°C° 0 mm 3 mps 743 mmHg 40%
16:00 +34°C° 0.1 mm 4 mps 743 mmHg 43%
17:00 +33°C° 0.1 mm 4 mps 742 mmHg 45%
18:00 +32°C° 0.1 mm 4 mps 742 mmHg 48%
19:00 +29°C° 2.3 mm 3 mps 742 mmHg 59%
20:00 +26°C° 2.3 mm 2 mps 742 mmHg 71%
21:00 +23°C° 2.3 mm 2 mps 742 mmHg 82%
22:00 +23°C° 0.3 mm 2 mps 742 mmHg 83%
23:00 +21°C° 0.3 mm 2 mps 742 mmHg 84%

Day after tomorrow, 13 July, Monday

Time Temperature Precipitation Wind Pressure Humidity
00:00 +21°C° 0.3 mm 2 mps 741 mmHg 86%
01:00 +21°C° 0 mm 3 mps 741 mmHg 86%
02:00 +21°C° 0 mm 3 mps 741 mmHg 86%
03:00 +21°C° 0 mm 3 mps 740 mmHg 86%
04:00 +21°C° 0 mm 2 mps 740 mmHg 86%
05:00 +21°C° 0 mm 2 mps 740 mmHg 85%
06:00 +23°C° 0 mm 1 mps 740 mmHg 85%
07:00 +24°C° 0 mm 2 mps 740 mmHg 78%
08:00 +26°C° 0 mm 2 mps 739 mmHg 71%
09:00 +27°C° 0 mm 2 mps 739 mmHg 65%
10:00 +28°C° 0 mm 2 mps 739 mmHg 60%
11:00 +30°C° 0 mm 2 mps 739 mmHg 54%
12:00 +31°C° 0 mm 2 mps 739 mmHg 49%
13:00 +32°C° 0 mm 2 mps 739 mmHg 46%
14:00 +34°C° 0 mm 2 mps 739 mmHg 44%
15:00 +34°C° 0 mm 2 mps 739 mmHg 41%
16:00 +34°C° 0 mm 2 mps 738 mmHg 42%
17:00 +34°C° 0 mm 2 mps 738 mmHg 44%
18:00 +32°C° 0 mm 1 mps 737 mmHg 45%
19:00 +29°C° 3.9 mm 2 mps 738 mmHg 59%
20:00 +26°C° 3.9 mm 3 mps 738 mmHg 74%
21:00 +22°C° 3.9 mm 3 mps 738 mmHg 88%
22:00 +22°C° 0.6 mm 3 mps 738 mmHg 87%
23:00 +23°C° 0.6 mm 2 mps 738 mmHg 86%

14 July, Tuesday

Time Temperature Precipitation Wind Pressure Humidity
00:00 +23°C° 0.6 mm 1 mps 738 mmHg 86%
01:00 +22°C° 0.2 mm 1 mps 738 mmHg 87%
02:00 +22°C° 0.2 mm 1 mps 738 mmHg 89%
03:00 +21°C° 0.2 mm 1 mps 738 mmHg 90%
04:00 +20°C° 0.1 mm 2 mps 738 mmHg 90%
05:00 +20°C° 0.1 mm 2 mps 739 mmHg 90%
06:00 +20°C° 0.1 mm 3 mps 739 mmHg 90%
07:00 +21°C° 0 mm 3 mps 739 mmHg 87%
08:00 +21°C° 0 mm 4 mps 740 mmHg 84%
09:00 +22°C° 0 mm 4 mps 740 mmHg 81%
10:00 +23°C° 0.3 mm 5 mps 740 mmHg 78%
11:00 +23°C° 0.3 mm 5 mps 741 mmHg 74%
12:00 +23°C° 0.3 mm 5 mps 741 mmHg 71%
13:00 +24°C° 0.1 mm 6 mps 741 mmHg 68%
14:00 +24°C° 0.1 mm 6 mps 741 mmHg 65%
15:00 +26°C° 0.1 mm 6 mps 741 mmHg 61%
16:00 +24°C° 0 mm 6 mps 742 mmHg 62%
17:00 +24°C° 0 mm 6 mps 742 mmHg 62%
18:00 +23°C° 0 mm 6 mps 742 mmHg 63%
19:00 +22°C° 0 mm 5 mps 742 mmHg 68%
20:00 +20°C° 0 mm 4 mps 742 mmHg 73%
21:00 +19°C° 0 mm 4 mps 743 mmHg 78%
22:00 +18°C° 0 mm 4 mps 743 mmHg 81%
23:00 +18°C° 0 mm 4 mps 743 mmHg 84%

15 July, Wednesday

Time Temperature Precipitation Wind Pressure Humidity
00:00 +17°C° 0 mm 4 mps 743 mmHg 87%
01:00 +17°C° 0 mm 4 mps 743 mmHg 88%
02:00 +15°C° 0 mm 4 mps 743 mmHg 89%
03:00 +15°C° 0 mm 4 mps 743 mmHg 89%
04:00 +15°C° 0 mm 4 mps 744 mmHg 87%
05:00 +16°C° 0 mm 5 mps 744 mmHg 85%
06:00 +16°C° 0 mm 5 mps 744 mmHg 82%
07:00 +17°C° 0 mm 5 mps 745 mmHg 77%
08:00 +19°C° 0 mm 4 mps 745 mmHg 72%
09:00 +20°C° 0 mm 4 mps 746 mmHg 67%
10:00 +22°C° 0 mm 4 mps 746 mmHg 61%
11:00 +23°C° 0 mm 4 mps 746 mmHg 55%
12:00 +26°C° 0 mm 4 mps 746 mmHg 50%
13:00 +26°C° 0 mm 5 mps 746 mmHg 48%
14:00 +26°C° 0 mm 5 mps 746 mmHg 46%
15:00 +27°C° 0 mm 5 mps 746 mmHg 44%
16:00 +26°C° 0 mm 4 mps 746 mmHg 45%
17:00 +26°C° 0 mm 4 mps 746 mmHg 45%
18:00 +26°C° 0 mm 3 mps 746 mmHg 46%
19:00 +24°C° 0 mm 3 mps 746 mmHg 49%
20:00 +23°C° 0 mm 2 mps 746 mmHg 52%
21:00 +21°C° 0 mm 2 mps 747 mmHg 55%
22:00 +21°C° 0 mm 1 mps 747 mmHg 58%
23:00 +20°C° 0 mm 1 mps 747 mmHg 61%

16 July, Thursday

Time Temperature Precipitation Wind Pressure Humidity
00:00 +19°C° 0 mm 1 mps 746 mmHg 64%
01:00 +19°C° 0 mm 1 mps 746 mmHg 65%
02:00 +18°C° 0 mm 1 mps 746 mmHg 66%
03:00 +18°C° 0 mm 1 mps 746 mmHg 67%
04:00 +18°C° 0 mm 1 mps 746 mmHg 67%
05:00 +18°C° 0 mm 1 mps 746 mmHg 67%
06:00 +19°C° 0 mm 1 mps 746 mmHg 67%
07:00 +20°C° 0 mm 1 mps 747 mmHg 61%
08:00 +22°C° 0 mm 1 mps 747 mmHg 56%
09:00 +24°C° 0 mm 1 mps 747 mmHg 50%
10:00 +25°C° 0 mm 1 mps 747 mmHg 47%
11:00 +25°C° 0 mm 1 mps 747 mmHg 45%
12:00 +26°C° 0 mm 1 mps 747 mmHg 42%
13:00 +26°C° 0 mm 1 mps 746 mmHg 42%
14:00 +26°C° 0 mm 1 mps 746 mmHg 41%
15:00 +27°C° 0 mm 1 mps 746 mmHg 41%
16:00 +27°C° 0 mm 1 mps 746 mmHg 42%
17:00 +26°C° 0 mm 1 mps 745 mmHg 42%
18:00 +26°C° 0 mm 1 mps 745 mmHg 43%
19:00 +25°C° 0 mm 1 mps 745 mmHg 46%
20:00 +24°C° 0 mm 1 mps 745 mmHg 50%
21:00 +22°C° 0 mm 1 mps 746 mmHg 53%
22:00 +21°C° 0 mm 1 mps 745 mmHg 55%
23:00 +21°C° 0 mm 1 mps 745 mmHg 58%
Show more